Regional Weather Roundup
Issued by NWS

Home | Current Version | Previous Version | Graphics & Text | Print | Product List | Glossary On
Versions: 1 2 3 4 5 6 7 8 9 10 11 12 13 14 15 16 17 18 19 20 21 22 23 24 25 26 27 28 29 30 31 32 33 34 35 36 37 38 39 40 41 42 43 44 45 46 47 48 49 50
000
ASUS44 KMEG 271910
RWRTN
TENNESSEE HOURLY STATE WEATHER ROUNDUP
NATIONAL WEATHER SERVICE MEMPHIS TN
200 PM CDT MON APR 27 2015

TNZ002-004-019-021-049-052-054-088>092-272000-
WEST TENNESSEE

CITY           SKY/WX    TMP DP  RH WIND       PRES   REMARKS
MEMPHIS INTL   CLOUDY    65  41  41 NE14G21   29.97F
NWS MEMPHIS      N/A     62 N/A N/A MISG        N/A
JACKSON        CLOUDY    63  43  48 N12G18    29.99F
DYERSBURG      CLOUDY    63  32  31 N16       30.01F
UNION CITY     SUNNY     61  32  33 NE12      30.00F
PARIS          SUNNY     61  37  41 NE9       30.01R
LEXINGTON      SUNNY     63  36  36 NE8       29.97S
SAVANNAH       SUNNY     63  32  31 N10       29.98S
$$

TNZ008-025-027-028-033-062-065-066-272000-
NORTH MIDDLE TENNESSEE

CITY           SKY/WX    TMP DP  RH WIND       PRES   REMARKS
NASHVILLE      PTSUNNY   66  37  34 NE13      29.98F
CLARKSVILLE    PTSUNNY   64  37  36 VRB3      29.99F
SMYRNA         MOSUNNY   66  38  35 N12       29.98F
COOKEVILLE     SUNNY     63  37  39 VRB6      29.96R
CROSSVILLE     SUNNY     61  33  35 NE13G21   29.96R
$$

TNZ061-075-076-078-094-096-097-272000-
SOUTH MIDDLE TENNESSEE

CITY           SKY/WX    TMP DP  RH WIND       PRES   REMARKS
FAYETTEVILLE     N/A     63  39  42 N7        29.95F
TULLAHOMA      SUNNY     61  36  39 CALM      29.96F
WINCHESTER     SUNNY     63  39  42 NE10      29.95F
MCMINNVILLE    SUNNY     61  39  44 N10       29.97R
COLUMBIA       SUNNY     63  32  31 E10       29.95F
SHELBYVILLE    SUNNY     63  43  48 N9        29.98S
$$

TNZ017-018-042-046-047-272000-
NORTHEAST TENNESSEE

CITY           SKY/WX    TMP DP  RH WIND       PRES   REMARKS
TRI CITIES     MOSUNNY   63  33  32 VRB3      29.89F
ELIZABETHTON   CLEAR     57  34  41 W6        29.89F
$$

TNZ012-013-036-069-073-074-272000-
CENTRAL EAST TENNESSEE

CITY           SKY/WX    TMP DP  RH WIND       PRES   REMARKS
KNOXVILLE      MOSUNNY   63  32  31 NE6G16    29.92S
OAK RIDGE      SUNNY     65  32  29 E15       29.93S
GATLINBURG     CLEAR     61  34  36 N9        29.91F
MORRISTOWN     CLEAR     61  36  39 VRB5      29.92F
$$

TNZ083-085-099-272000-
SOUTHEAST TENNESSEE

CITY           SKY/WX    TMP DP  RH WIND       PRES   REMARKS
CHATTANOOGA    PTSUNNY   68  39  34 N12       29.93R
$$

SKY/WX REPORTED AS FAIR MEANS FEW OR NO CLOUDS BELOW
12 THOUSAND FEET.



USA.gov is the U.S. government's official web portal to all federal, state and local government web resources and services.